Regional Weather Roundup
Issued by NWS

Home | Current Version | Previous Version | Text Only | Print | Product List | Glossary Off
Versions: 1 2 3 4 5 6 7 8 9 10 11 12 13 14 15 16 17 18 19 20 21 22 23 24 25 26 27 28 29 30 31 32 33 34 35 36 37 38 39 40 41 42 43 44 45 46 47 48 49 50

000
ASUS43 KLOT 221606
RWRIL

ILLINOIS REGIONAL WEATHER ROUNDUP
NATIONAL WEATHER SERVICE CHICAGO/ROMEOVILLE IL
1100 AM CDT MON SEP 22 2014

NOTE: "FAIR" INDICATES FEW OR NO CLOUDS BELOW 12,000 FEET WITH NO
SIGNIFICANT WEATHER AND/OR OBSTRUCTIONS TO VISIBILITY.

* THESE STATIONS ARE NOT UNDER NWS QUALITY CONTROL. THEY ALSO MAY NOT
  REPORT WEATHER SUCH AS PRECIPITATION OR FOG.

ILZ001-002-007-009-015-016-024-221700-
NORTHWEST ILLINOIS

CITY           SKY/WX    TMP DP  RH WIND       PRES   REMARKS
MOLINE         SUNNY     59  44  57 CALM      30.33S
STERLING*      SUNNY     63  41  45 S5        30.32S
SAVANNA*       SUNNY     59  33  37 SW5       30.32S
$$

ILZ003-004-008-010-011-017-018-221700-
NORTH CENTRAL ILLINOIS

CITY           SKY/WX    TMP DP  RH WIND       PRES   REMARKS
ROCKFORD       SUNNY     59  43  55 W6        30.33S
FREEPORT*      SUNNY     57  45  62 SW3       30.33F
ROCHELLE*      SUNNY     57  39  52 CALM      30.31F
DE KALB*       SUNNY     55  41  59 CALM      30.32S
PERU*          SUNNY     58  41  53 CALM      30.32F
$$

ILZ005-006-012>014-019>023-221700-
NORTHEAST ILLINOIS

CITY           SKY/WX    TMP DP  RH WIND       PRES   REMARKS
CHICAGO-OHARE  MOSUNNY   54  42  64 CALM      30.29S
CHICAGO-MIDWAY MOSUNNY   61  47  59 NE5       30.29S
AURORA         SUNNY     59  42  53 VRB5      30.31R
LANSING*       MOSUNNY   58  45  60 N7        30.29S
JOLIET*        SUNNY     57  42  58 CALM      30.31S
WAUKEGAN       SUNNY     57  41  55 NW5       30.28S
DUPAGE AIRPORT SUNNY     59  42  53 VRB3      30.30R
KANKAKEE*      SUNNY     58  46  63 NE3       30.30F
WHEELING       SUNNY     60  40  47 CALM      30.31R
MORRIS*        SUNNY     59  45  59 CALM      30.30S
ROMEOVILLE*    SUNNY     58  42  56 W5        30.30S
NORTHERLY ISL    N/A     57  45  64 N5          N/A
$$

LMZ740>746-221700-
SOUTHERN LAKE MICHIGAN

STATION/POSITION SKY/WX   TEMP    WIND        PRES    VSBY  WAVE
                          AIR SEA DIR/SP/G                  HT/PER
                          (F)     (DEG/KT/KT) (MB)    (MI)  (FT/S)
SOUTHERN BUOY              54 62  300/  8/ 10 1025.6R         3/ 7
WAUKEGAN HARBOR            56     170/  2/  5   N/A
HARRISON CRIB              53     330/  7/  9   N/A
BURNHAM HARBOR             56      40/  7/  8   N/A
CALUMET HARBOR             56     330/  6/ 11 1024.5S
MICHIGAN CITY              56     310/  1/  3   N/A
MICHIGAN CITY 6N           55 64  340/  8/ 14   N/A           5/ 7
ST. JOSEPH                 55 65  340/  8/ 14   N/A           4/ 6
$$

ILZ025>027-034>036-040-047-049-050-058-095>099-221700-
WEST-CENTRAL ILLINOIS

CITY           SKY/WX    TMP DP  RH WIND       PRES   REMARKS
QUINCY         SUNNY     64  45  49 N5        30.33S
GALESBURG*     SUNNY     65  47  52 CALM      30.33S
MACOMB*        SUNNY     61  45  56 NW6       30.35S
JACKSONVILLE*  SUNNY     65  49  55 NW5       30.33S
PITTSFIELD*    SUNNY     65  44  45 N5        30.33F
$$

ILZ028>032-037-038-041>044-048-051>054-059>061-221700-
CENTRAL ILLINOIS

CITY           SKY/WX    TMP DP  RH WIND       PRES   REMARKS
PONTIAC        SUNNY     61  43  51 NW5       30.31S
DECATUR        SUNNY     62  47  57 VRB6      30.31S
PEORIA         SUNNY     62  46  55 N6        30.32S
LACON*         SUNNY     57  44  61 N3        30.31F
LINCOLN*       SUNNY     63  46  52 NW5       30.30S
SPRINGFIELD    SUNNY     64  49  57 VRB5      30.32S
TAYLORVILLE    SUNNY     61  46  59 N5        30.31S
$$

ILZ033-039-045-046-055>057-062-063-221700-
EAST-CENTRAL ILLINOIS

CITY           SKY/WX    TMP DP  RH WIND       PRES   REMARKS
CHAMPAIGN      MOSUNNY   59  47  64 NW5       30.30S
DANVILLE*      SUNNY     59  45  60 NW9       30.26S
RANTOUL*       SUNNY     60  45  58 N7        30.30F
MATTOON        SUNNY     61  47  59 NE6       30.29S
PARIS*         SUNNY     61  47  59 N7        30.30S
$$

ILZ079-100>102-221700-
SOUTHWEST ILLINOIS

CITY           SKY/WX    TMP DP  RH WIND       PRES   REMARKS
BELLEVILLE     MOSUNNY   66  52  60 VRB7      30.30R
CAHOKIA*       SUNNY     66  49  54 VRB3      30.31R
SPARTA*        SUNNY     64  50  60 NE6       30.31S
$$

ILZ064>066-069>071-074>076-080>082-084>086-088>090-092>094-221700-
SOUTH-CENTRAL ILLINOIS

CITY           SKY/WX    TMP DP  RH WIND       PRES   REMARKS
CARBONDALE     MOSUNNY   65  49  56 NE8       30.28S
CAIRO*         SUNNY     69  52  55 N7        30.27R
EFFINGHAM*     MOSUNNY   62  46  56 NW6       30.29F
MARION         MOSUNNY   64  50  59 N12       30.29F
MT. VERNON     SUNNY     63  48  59 NE7       30.30S
CENTRALIA*     SUNNY     63  48  56 NE8       30.29F
SALEM*         SUNNY     64  51  63 N7        30.30S
METROPOLIS*    MOSUNNY   67  53  59 E6        30.26S
$$

ILZ067-068-072-073-078-083-087-091-221700-
SOUTHEAST ILLINOIS

CITY           SKY/WX    TMP DP  RH WIND       PRES   REMARKS
LAWRENCEVILLE  MOSUNNY   63  49  60 VRB7      30.28F
FLORA*         SUNNY     63  45  51 N8        30.30S
FAIRFIELD*     SUNNY    N/A N/A N/A N8        30.29S
HARRISBURG*    SUNNY     64  47  55 N8        30.30S
ROBINSON*      SUNNY     63  50  63 N5        30.29S
CARMI*         MOSUNNY   66  51  57 NE3       30.28S
$$

ABBREVIATIONS USED IN REMARKS
   TC - TEMPERATURE IN CELSIUS
  WCI - WIND CHILL INDEX
   HX - HEAT INDEX
  VSB - VISIBILITY
$$




USA.gov is the U.S. government's official web portal to all federal, state and local government web resources and services.